Location: Novokuznetsk
(53.7500°N, 87.1000°E)
Time: 19:38:57
(UTC+06:00)

ISS - Pass Details

Date: 04 March 2021
Orbit: 418 x 422 km, 51.6° (Epoch: 16 April)

Event Time Altitude Azimuth Distance (km) Brightness Sun altitude
Exits shadow 05:59:39 12° 267° (W) 1,367 -1.8 -8.7°
Maximum altitude 06:02:34 49° 194° (SSW) 552 -3.3 -8.3°
Drops below altitude 10° 06:05:50 10° 118° (ESE) 1,498 0.2 -7.8°
Sets 06:07:58 0° 113° (ESE) 2,361 1.5 -7.5°
